{"data":{"norad_id":59803,"intl_designator":"2024-093X","name":"STARLINK-31794","alt_names":[],"object_type":"PAYLOAD","status":"ACTIVE","operator":null,"country":"US","launch_date":"2024-05-18","launch_site_code":"AFETR","launch_vehicle":null,"mission":null,"orbit_class":"UNKNOWN","rcs_meters":null,"size_class":null,"mass_kg":null,"dimensions":null,"purposes":["comms"],"wikipedia_slug":null,"has_3d_model":false,"image_url":null,"decayed_at":null,"tle_current":{"epoch":"2026-05-24T11:35:44.227392Z","epoch_age_seconds":130419,"freshness":"FRESH","line1":"1 59803U 24093X   26144.48315078  .00001156  00000+0  51512-4 0  9996","line2":"2 59803  43.0007 141.1432 0001096 272.9762  87.0965 15.27579796114355","mean_motion":15.27579796,"eccentricity":0.0001096,"inclination_deg":43.0007,"raan_deg":141.1432,"arg_perigee_deg":272.9762,"mean_anomaly_deg":87.0965,"bstar":5.1512e-5,"rev_number":11435,"period_min":94.266761302465,"perigee_km":482.29772082603,"apogee_km":483.80169295218,"semimajor_km":6861.1867068891,"source":"CELESTRAK","updated_at":"2026-05-25T13:38:19.084442Z"}}}